Chehalis, WA
on Tuesday, December 18, 2012

Tuesday
Previous Day Next Day
Daily Summary
 ActualAverage (KOLM)Record (KOLM)
Temperature
Mean Temperature °F 38°F  
Max Temperature 37°F 44°F 56°F (2004)
Min Temperature 32°F 32°F 13°F (2005)
Degree Days
Heating Degree Days 30 27  
Month to date heating degree days 475  
Since 1 July heating degree days 1920  
Cooling Degree Days 0 0  
Month to date cooling degree days 0  
Year to date cooling degree days 106  
Moisture
Dew Point 32°F   
Average Humidity 90    
Maximum Humidity 100    
Minimum Humidity 81    
Precipitation
Precipitation 0.12 in 0.21 in 1.11 in (1960)
Month to date precipitation 4.49  
Year to date precipitation 47.03  
Wind
Wind Speed 8 mph   
Max Wind Speed 12 mph   
Max Gust Speed 18 mph   
Visibility 9 miles   
Events Rain   

Key: T is trace of precipitation, MM is missing value
Source: NWS Daily Summary
Time(PST)TemperatureDew PointHumidity Pressure Visibility Wind DirectionWind SpeedGust SpeedPrecipitationEvents Conditions
12:15 AM 35.6°F 32.0°F 87% 29.93 in 10.0 miles South 9.2 mph - N/A   Overcast
12:35 AM 33.8°F 32.0°F 93% 29.93 in 10.0 miles South 6.9 mph - N/A   Scattered Clouds
12:55 AM 33.8°F 32.0°F 93% 29.93 in 10.0 miles SSW 4.6 mph - N/A   Mostly Cloudy
1:15 AM 35.6°F 32.0°F 87% 29.93 in 10.0 miles WSW 3.5 mph - N/A   Overcast
1:35 AM 35.6°F 32.0°F 87% 29.93 in 7.0 miles South 9.2 mph - 0.01 in Rain Light Rain
1:55 AM 35.6°F 32.0°F 87% 29.92 in 10.0 miles SSE 10.4 mph - 0.01 in Rain Light Rain
2:15 AM 35.6°F 32.0°F 87% 29.93 in 10.0 miles South 6.9 mph - N/A   Overcast
2:35 AM 35.6°F 32.0°F 87% 29.93 in 6.0 miles South 8.1 mph - 0.01 in   Overcast
3:15 AM 35.6°F 32.0°F 87% 29.92 in 10.0 miles South 9.2 mph - N/A   Overcast
3:35 AM 33.8°F 32.0°F 93% 29.92 in 10.0 miles South 9.2 mph - N/A   Overcast
3:55 AM 33.8°F 32.0°F 93% 29.92 in 10.0 miles South 11.5 mph 16.1 mph N/A   Overcast
4:15 AM 35.6°F 32.0°F 87% 29.92 in 10.0 miles SSW 5.8 mph - N/A   Overcast
4:35 AM 35.6°F 32.0°F 87% 29.93 in 7.0 miles South 4.6 mph - N/A   Overcast
4:55 AM 35.6°F 32.0°F 87% 29.94 in 10.0 miles SSE 3.5 mph - N/A   Overcast
5:15 AM 35.6°F 32.0°F 87% 29.93 in 10.0 miles SSE 4.6 mph - N/A   Overcast
5:35 AM 35.6°F 32.0°F 87% 29.95 in 5.0 miles South 5.8 mph - 0.01 in   Overcast
5:55 AM 32.0°F 32.0°F 100% 29.94 in 1.0 miles South 8.1 mph - 0.01 in   Overcast
6:15 AM 32.0°F 32.0°F 100% 29.95 in 10.0 miles South 8.1 mph - N/A Rain Light Rain
6:35 AM 32.0°F 32.0°F 100% 29.95 in 3.0 miles South 8.1 mph - 0.01 in Rain Light Rain
6:55 AM 32.0°F 32.0°F 100% 29.96 in 3.0 miles SW 4.6 mph - 0.01 in Rain Light Rain
7:15 AM 32.0°F 32.0°F 100% 29.96 in 3.0 miles South 5.8 mph - N/A Rain Light Rain
7:35 AM 32.0°F 32.0°F 100% 29.96 in 10.0 miles South 5.8 mph - N/A Rain Light Rain
7:55 AM 32.0°F 32.0°F 100% 29.96 in 8.0 miles SSE 4.6 mph - N/A   Mostly Cloudy
8:15 AM 33.8°F 32.0°F 93% 29.97 in 5.0 miles South 6.9 mph - N/A Rain Light Rain
8:35 AM 32.0°F 32.0°F 100% 29.97 in 4.0 miles SSE 6.9 mph - N/A   Mostly Cloudy
8:55 AM 33.8°F 32.0°F 93% 29.97 in 10.0 miles South 8.1 mph - N/A   Mostly Cloudy
9:15 AM 33.8°F 32.0°F 93% 29.98 in 10.0 miles SSW 5.8 mph - 0.01 in   Mostly Cloudy
9:35 AM 33.8°F 32.0°F 93% 29.98 in 10.0 miles South 6.9 mph - 0.03 in   Overcast
9:55 AM 33.8°F 32.0°F 93% 29.99 in 10.0 miles South 10.4 mph - 0.04 in   Overcast
10:15 AM 33.8°F 32.0°F 93% 29.99 in 10.0 miles South 9.2 mph - 0.01 in   Mostly Cloudy
10:35 AM 35.6°F 32.0°F 87% 30.00 in 10.0 miles South 8.1 mph - 0.02 in   Mostly Cloudy
10:55 AM 35.6°F 32.0°F 87% 30.00 in 10.0 miles SSE 6.9 mph - 0.04 in   Mostly Cloudy
11:15 AM 35.6°F 32.0°F 87% 30.00 in 10.0 miles South 8.1 mph - N/A   Mostly Cloudy
11:35 AM 35.6°F 32.0°F 87% 29.99 in 10.0 miles South 8.1 mph - N/A   Overcast
11:55 AM 35.6°F 33.8°F 93% 30.00 in 10.0 miles South 6.9 mph - N/A   Mostly Cloudy
12:15 PM 37.4°F 32.0°F 81% 30.00 in 10.0 miles SSE 6.9 mph - N/A   Mostly Cloudy
12:35 PM 37.4°F 33.8°F 87% 30.00 in 10.0 miles South 8.1 mph - N/A   Mostly Cloudy
12:55 PM 37.4°F 33.8°F 87% 29.99 in 10.0 miles South 9.2 mph - N/A   Scattered Clouds
1:15 PM 37.4°F 33.8°F 87% 29.99 in 10.0 miles South 9.2 mph - N/A   Scattered Clouds
1:35 PM 37.4°F 33.8°F 87% 29.99 in 10.0 miles South 8.1 mph - N/A   Partly Cloudy
1:55 PM 37.4°F 33.8°F 87% 29.99 in 10.0 miles South 8.1 mph - N/A   Partly Cloudy
2:15 PM 37.4°F 33.8°F 87% 29.99 in 10.0 miles South 10.4 mph - N/A   Scattered Clouds
2:35 PM 37.4°F 32.0°F 81% 29.99 in 10.0 miles South 10.4 mph - N/A   Mostly Cloudy
2:55 PM 37.4°F 33.8°F 87% 29.99 in 10.0 miles South 5.8 mph - N/A   Mostly Cloudy
3:15 PM 37.4°F 33.8°F 87% 30.00 in 10.0 miles SW 4.6 mph - N/A   Mostly Cloudy
3:35 PM 37.4°F 35.6°F 93% 30.00 in 10.0 miles SSW 4.6 mph - N/A   Overcast
3:55 PM 37.4°F 33.8°F 87% 30.00 in 9.0 miles South 8.1 mph - N/A   Mostly Cloudy
4:15 PM 35.6°F 33.8°F 93% 30.00 in 10.0 miles South 6.9 mph - N/A   Scattered Clouds
4:35 PM 35.6°F 33.8°F 93% 30.01 in 10.0 miles South 8.1 mph - N/A   Mostly Cloudy
4:55 PM 35.6°F 33.8°F 93% 30.01 in 10.0 miles SSE 9.2 mph - N/A   Overcast
5:15 PM 35.6°F 32.0°F 87% 30.01 in 10.0 miles South 8.1 mph - N/A   Overcast
5:35 PM 35.6°F 32.0°F 87% 30.01 in 10.0 miles SSE 6.9 mph - N/A   Mostly Cloudy
5:55 PM 35.6°F 32.0°F 87% 30.02 in 10.0 miles South 8.1 mph - N/A   Partly Cloudy
6:15 PM 33.8°F 32.0°F 93% 30.02 in 8.0 miles South 6.9 mph - N/A   Mostly Cloudy
6:35 PM 33.8°F 32.0°F 93% 30.02 in 10.0 miles South 8.1 mph - N/A   Mostly Cloudy
6:55 PM 33.8°F 32.0°F 93% 30.02 in 10.0 miles South 8.1 mph - N/A   Partly Cloudy
7:15 PM 33.8°F 32.0°F 93% 30.02 in 10.0 miles South 6.9 mph - N/A   Clear
7:35 PM 33.8°F 32.0°F 93% 30.02 in 10.0 miles South 6.9 mph - N/A   Partly Cloudy
7:55 PM 33.8°F 32.0°F 93% 30.02 in 10.0 miles South 8.1 mph - N/A   Partly Cloudy
8:15 PM 33.8°F 32.0°F 93% 30.02 in 10.0 miles South 6.9 mph - N/A   Mostly Cloudy
8:55 PM 35.6°F 32.0°F 87% 30.01 in 10.0 miles South 4.6 mph - N/A   Overcast
9:15 PM 35.6°F 32.0°F 87% 30.02 in 10.0 miles SSW 3.5 mph - N/A   Overcast
9:35 PM 35.6°F 32.0°F 87% 30.02 in 10.0 miles South 9.2 mph - N/A   Overcast
9:55 PM 35.6°F 32.0°F 87% 30.02 in 10.0 miles South 10.4 mph - N/A   Overcast
10:15 PM 35.6°F 32.0°F 87% 30.02 in 10.0 miles South 11.5 mph - N/A   Overcast
10:35 PM 35.6°F 32.0°F 87% 30.01 in 10.0 miles South 9.2 mph - N/A   Overcast
10:55 PM 35.6°F 32.0°F 87% 30.01 in 10.0 miles South 9.2 mph 16.1 mph N/A   Overcast
11:15 PM 35.6°F 32.0°F 87% 30.00 in 10.0 miles South 6.9 mph - N/A   Overcast
11:35 PM 35.6°F 32.0°F 87% 30.00 in 10.0 miles South 10.4 mph - N/A   Overcast
11:55 PM 35.6°F 32.0°F 87% 29.99 in 10.0 miles South 11.5 mph 18.4 mph N/A   Overcast
Moon Phase
Dec. 18 Dec. 20 Dec. 28 Jan. 04 Jan. 11
Sunrise:07:52 AM (PST) Moon Rise:11:14 AM (PST)12/18
Sunset:04:25 PM (PST) Moon Set:11:19 PM (PST)12/18

Copyright © 2014 The Weather Underground, Inc.